Showing default

NUSAT-33 (ALBANIA-2), 55047

Orbit data source: Space-Track

NUSAT-33 (ALBANIA-2), 55047 is a payload satellite owned by URUGUS S.A. (AR) in SSO that was launched on Tue, 03 Jan 2023 UTC via an FALCON 9 launch vehicle from the Air Force Eastern Test Range (AFETR). Payload-class satellites include a variety of spacecraft equipped with specific instruments for various scientific and technological missions. These include communications satellites like Starlink; space stations such as the ISS; scientific satellites like the Hubble; Earth observation satellites from companies like Planet Labs, Umbra, and HawkEye 360; GPS; miniature CubeSats for education and research; and military/defense satellites.

Loading next visibility...
Identifier
55047, 2023-001AQ
Orbit
SSO
Country
Flag of ARAR / ARGN
Related business
Manufacturer
URUGUS S.A.
Mission
Operational Commercial Imaging
Bus & Motor
NEWSAT V, Unknown motor
Mass
41.5 kg wet, 38.5 kg dry
Launch date (UTC)
2023-01-03 (3 years ago)
Launch vehicle
FALCON 9
Launch site
Air Force Eastern Test Range (AFETR)
Object type
Payload
Rocket body
Debris
Shape & HBR
Box, 1.0 m
Radar Cross Section
0.542 m², Medium (>0.1 m² and < 1m²)

Expand to show TLE details & history
Last TLE update: 8 hours ago

TLE from 8 hours ago
0 NUSAT-33 (ALBANIA-2)
1 55047U 23001AQ  26177.70651666  .00009251  00000-0  34143-3 0  9992
2 55047  97.3075 238.4323 0006690  27.7013 332.4582 15.27960881193760
Epoch: 2026-06-26T16:57Z
TLE epoch observation values (Epoch: 2026-06-26T16:57:23.039Z)
Latitude
-0.00001°
Longitude
69.25513°
Altitude
480.943 km
Speed
7.627 km/s
True Right ascension
15h 53m 43s
True Declination
0° 00' 00"
Sunlit
Object was in full shadow at epoch
Visualization orbit readout
Latitude
Unknown
Longitude
Unknown
Altitude
Unknown
Speed
Unknown
Apparent Right ascension
Unknown
Apparent Declination
Unknown
Sunlit
N/A
Visualization observer readout
Local Sidereal Time
12:00:36
Azimuth
Unknown
Elevation
Unknown
Doppler factor
Unknown
Orbital elements
Apogee altitude
483.447 km
Perigee altitude
474.273 km
Semi-major axis
6,856.997 km
Eccentricity
0.00067
Inclination
97.3075°
RAAN
238.4323°
Arg. of periapsis
27.7013°
True anomaly
332.42273°
Mean anomaly
332.4582°
Eccentric anomaly
332.44047°
Mean motion
3.82245 °/min
Orbital period
94.18 mins
BSTAR
0.00034143
Loading maneuver chart data...
Computing Atmospheric mass density...

Documentation

Showing up to 5 results
|